SIA351 EKCH-WSSS

Flight info

Callsign SIA351
Flight time N/A
Altitude 35000
Route SIMEG Z493 XELOL DCT KELEL DCT VERIG DCT ELROM DCT MOBRA DCT DENAK DCT DINRO DCT UDROS/N0484F370 UM859 KARDE UL851 TBN UR317 REBLO M11 LUSAL N199 BAKUV N701 LARGI B701 KRS A240 INRAK B449 DOLOS B475 RUBAD A846 RANAH L750 GODSI/N0493F390 L750 ZB G201 BINDO L750 MERUN L333 KKJ L759 LIBDI/N0483F410 L759 PUT W14 HTY A334 PASVA Y514 NUFFA DCT PIBAP DCT PASPU DCT NYLON DCT POSUB DCT SANAT
Aircraft A359/H-SDE2E3GHIJ3J4J5LM1ORWXY/LB1D1

Departure

Time 2026-04-30 13:00
Airport Copenhagen Kastrup Airport (EKCH)

Arrival

Time N/A
Airport Singapore Changi Airport (WSSS)
Time Latitude Longitude Altitude Speed Heading
2026-04-30 12:33 55.62570 12.65069 23 ft 0 kts 269°
2026-04-30 12:49 55.62572 12.65108 27 ft 4 kts 258°
2026-04-30 12:49 55.62580 12.65153 29 ft 4 kts 240°
2026-04-30 12:49 55.62596 12.65188 28 ft 4 kts 205°
2026-04-30 12:49 55.62609 12.65194 28 ft 4 kts 178°
2026-04-30 12:53 55.62592 12.65195 29 ft 5 kts 179°
2026-04-30 12:53 55.62536 12.65197 23 ft 10 kts 179°
2026-04-30 12:53 55.62460 12.65200 28 ft 12 kts 179°
2026-04-30 12:53 55.62376 12.65203 27 ft 13 kts 179°
2026-04-30 12:54 55.62285 12.65202 26 ft 14 kts 182°
2026-04-30 12:54 55.62192 12.65163 28 ft 14 kts 211°
2026-04-30 12:54 55.62108 12.65066 25 ft 15 kts 213°
2026-04-30 12:54 55.62020 12.64965 28 ft 16 kts 213°
2026-04-30 12:55 55.61925 12.64855 24 ft 17 kts 213°
2026-04-30 12:55 55.61824 12.64739 26 ft 18 kts 213°
2026-04-30 12:55 55.61719 12.64617 27 ft 18 kts 213°
2026-04-30 12:55 55.61609 12.64491 27 ft 19 kts 213°
2026-04-30 12:56 55.61496 12.64362 24 ft 20 kts 212°
2026-04-30 12:56 55.61379 12.64227 28 ft 20 kts 213°
2026-04-30 12:56 55.61258 12.64086 26 ft 21 kts 213°
2026-04-30 12:56 55.61134 12.63941 28 ft 22 kts 213°
2026-04-30 12:57 55.61006 12.63793 27 ft 22 kts 213°
2026-04-30 12:57 55.60875 12.63646 24 ft 23 kts 211°
2026-04-30 12:57 55.60742 12.63495 25 ft 23 kts 213°
2026-04-30 12:57 55.60613 12.63330 23 ft 23 kts 219°
2026-04-30 12:58 55.60494 12.63147 24 ft 19 kts 220°
2026-04-30 12:58 55.60399 12.63155 26 ft 15 kts 137°
2026-04-30 12:58 55.60349 12.63298 27 ft 12 kts 96°
2026-04-30 12:58 55.60385 12.63423 27 ft 12 kts 42°
2026-04-30 12:59 55.60462 12.63541 26 ft 20 kts 41°
2026-04-30 12:59 55.60711 12.63925 27 ft 80 kts 41°
2026-04-30 12:59 55.61291 12.64823 30 ft 140 kts 41°
2026-04-30 12:59 55.62128 12.66138 306 ft 169 kts 40°
2026-04-30 13:00 55.62993 12.67523 1136 ft 167 kts 38°
2026-04-30 13:00 55.63868 12.68932 1824 ft 172 kts 37°
2026-04-30 13:00 55.64756 12.70369 2264 ft 173 kts 37°
2026-04-30 13:00 55.65643 12.71809 2701 ft 172 kts 38°
2026-04-30 13:01 55.66519 12.73216 3127 ft 172 kts 38°
2026-04-30 13:01 55.67408 12.74619 3560 ft 171 kts 37°
2026-04-30 13:01 55.68304 12.76001 3934 ft 173 kts 36°
2026-04-30 13:01 55.69086 12.77753 3956 ft 203 kts 69°
2026-04-30 13:02 55.69019 12.80412 4047 ft 231 kts 111°
2026-04-30 13:02 55.67992 12.82715 4286 ft 249 kts 136°
2026-04-30 13:02 55.66583 12.84682 4545 ft 265 kts 141°
2026-04-30 13:02 55.65098 12.86722 4951 ft 274 kts 140°
2026-04-30 13:03 55.63574 12.88791 5490 ft 278 kts 141°
2026-04-30 13:03 55.61880 12.90493 6018 ft 284 kts 161°
2026-04-30 13:03 55.59919 12.90732 6548 ft 288 kts 192°
2026-04-30 13:03 55.58127 12.89196 7053 ft 288 kts 222°
2026-04-30 13:04 55.56686 12.86737 7368 ft 289 kts 229°
2026-04-30 13:04 55.55317 12.84171 7448 ft 290 kts 229°
2026-04-30 13:04 55.53909 12.81542 7456 ft 291 kts 228°
2026-04-30 13:04 55.52436 12.79139 7553 ft 295 kts 216°
2026-04-30 13:05 55.50539 12.77742 7950 ft 299 kts 188°
2026-04-30 13:05 55.48472 12.77754 8564 ft 297 kts 172°
2026-04-30 13:05 55.46409 12.78202 9150 ft 299 kts 170°
2026-04-30 13:06 55.42244 12.79162 10292 ft 304 kts 170°
2026-04-30 13:06 55.40125 12.79632 10712 ft 312 kts 170°
2026-04-30 13:06 55.37921 12.80125 10952 ft 325 kts 169°
2026-04-30 13:06 55.35700 12.81116 11148 ft 335 kts 152°
2026-04-30 13:07 55.33804 12.83414 11349 ft 338 kts 129°
2026-04-30 13:07 55.32549 12.86894 11557 ft 340 kts 106°
2026-04-30 13:07 55.31947 12.90944 11793 ft 347 kts 97°
2026-04-30 13:07 55.31485 12.95168 12025 ft 357 kts 97°
2026-04-30 13:08 55.31009 12.99493 12352 ft 364 kts 97°
2026-04-30 13:08 55.30513 13.03861 12799 ft 366 kts 97°
2026-04-30 13:08 55.30004 13.08256 13283 ft 368 kts 97°
2026-04-30 13:08 55.29487 13.12669 13770 ft 369 kts 97°
2026-04-30 13:09 55.28965 13.17092 14242 ft 371 kts 97°
2026-04-30 13:09 55.28439 13.21529 14655 ft 373 kts 97°
2026-04-30 13:09 55.27907 13.25998 15041 ft 375 kts 97°
2026-04-30 13:09 55.27377 13.30437 15443 ft 377 kts 97°
2026-04-30 13:10 55.26836 13.34946 15845 ft 379 kts 97°
2026-04-30 13:10 55.26289 13.39491 16248 ft 381 kts 97°
2026-04-30 13:10 55.25735 13.44058 16638 ft 384 kts 97°
2026-04-30 13:10 55.24978 13.48586 17013 ft 392 kts 107°
2026-04-30 13:11 55.23647 13.52826 17423 ft 402 kts 119°
2026-04-30 13:11 55.21951 13.56766 17800 ft 408 kts 123°
2026-04-30 13:11 55.20103 13.60571 18165 ft 412 kts 125°
2026-04-30 13:11 55.18173 13.64337 18522 ft 416 kts 126°
2026-04-30 13:12 55.16220 13.68098 18872 ft 418 kts 126°
2026-04-30 13:12 55.14266 13.71882 19180 ft 420 kts 126°
2026-04-30 13:12 55.12312 13.75709 19490 ft 423 kts 126°
2026-04-30 13:13 55.08431 13.83408 20113 ft 427 kts 125°
2026-04-30 13:13 55.06470 13.87319 20429 ft 429 kts 125°
2026-04-30 13:13 55.02512 13.95210 21053 ft 434 kts 125°
2026-04-30 13:14 55.00516 13.99178 21351 ft 436 kts 125°
2026-04-30 13:14 54.99188 14.01814 21577 ft 437 kts 125°
2026-04-30 13:14 54.94487 14.11114 22316 ft 442 kts 125°
2026-04-30 13:15 54.93098 14.13815 22520 ft 445 kts 127°
2026-04-30 13:15 54.88314 14.20825 23145 ft 458 kts 137°
2026-04-30 13:15 54.85726 14.24081 23462 ft 461 kts 139°
2026-04-30 13:16 54.83081 14.27284 23782 ft 463 kts 140°
2026-04-30 13:16 54.80421 14.30455 24094 ft 466 kts 140°
2026-04-30 13:16 54.77741 14.33641 24341 ft 468 kts 140°
2026-04-30 13:17 54.72300 14.39936 24882 ft 472 kts 141°
2026-04-30 13:17 54.69524 14.43028 25152 ft 474 kts 142°
2026-04-30 13:17 54.63947 14.49219 25709 ft 478 kts 141°
2026-04-30 13:18 54.61181 14.52303 25980 ft 480 kts 141°
2026-04-30 13:18 54.55560 14.58593 26548 ft 484 kts 141°
2026-04-30 13:18 54.52735 14.61756 26832 ft 486 kts 141°
2026-04-30 13:19 54.49897 14.64929 27117 ft 488 kts 141°
2026-04-30 13:19 54.47041 14.68118 27401 ft 490 kts 141°
2026-04-30 13:19 54.44170 14.71318 27687 ft 492 kts 141°
2026-04-30 13:19 54.41292 14.74520 27973 ft 494 kts 141°
2026-04-30 13:20 54.38394 14.77736 28266 ft 496 kts 141°
2026-04-30 13:20 54.35488 14.80956 28541 ft 498 kts 141°
2026-04-30 13:20 54.32564 14.84191 28822 ft 500 kts 141°
2026-04-30 13:20 54.29631 14.87430 29085 ft 502 kts 141°
2026-04-30 13:21 54.26722 14.90642 29339 ft 504 kts 141°
2026-04-30 13:21 54.23818 14.94007 29596 ft 504 kts 139°
2026-04-30 13:21 54.20961 14.97487 29845 ft 505 kts 137°
2026-04-30 13:22 54.15254 15.04568 30334 ft 509 kts 137°
2026-04-30 13:22 54.12379 15.08107 30562 ft 511 kts 137°
2026-04-30 13:22 54.06587 15.15143 31154 ft 509 kts 138°
2026-04-30 13:23 54.03693 15.18623 31495 ft 508 kts 138°
2026-04-30 13:23 53.97922 15.25537 32100 ft 507 kts 138°
2026-04-30 13:24 53.92197 15.32373 32694 ft 505 kts 138°
2026-04-30 13:24 53.86457 15.39210 33285 ft 503 kts 138°
2026-04-30 13:25 53.80734 15.46004 33856 ft 502 kts 137°
2026-04-30 13:25 53.75012 15.52775 34431 ft 500 kts 137°
2026-04-30 13:26 53.66449 15.62867 35084 ft 500 kts 137°
2026-04-30 13:26 53.60773 15.69529 35416 ft 502 kts 137°
2026-04-30 13:28 53.46300 15.86411 35416 ft 506 kts 137°
2026-04-30 13:28 53.37608 15.96475 35423 ft 506 kts 137°
2026-04-30 13:29 53.26046 16.09793 35413 ft 506 kts 137°
2026-04-30 13:31 53.11511 16.26405 35412 ft 506 kts 137°
2026-04-30 13:32 52.97018 16.42833 35411 ft 505 kts 137°
2026-04-30 13:33 52.85385 16.55921 35412 ft 505 kts 137°
2026-04-30 13:34 52.76660 16.65685 35413 ft 505 kts 137°
2026-04-30 13:35 52.65044 16.78604 35421 ft 505 kts 137°
2026-04-30 13:36 52.53391 16.91478 35429 ft 504 kts 137°
2026-04-30 13:36 52.44640 17.01095 35434 ft 504 kts 137°
2026-04-30 13:37 52.35918 17.10631 35428 ft 504 kts 137°
2026-04-30 13:38 52.27149 17.20172 35423 ft 504 kts 137°
2026-04-30 13:39 52.15457 17.32825 35418 ft 504 kts 137°
2026-04-30 13:40 52.06673 17.42277 35424 ft 505 kts 137°
2026-04-30 13:40 52.00813 17.48556 35425 ft 505 kts 137°
2026-04-30 13:41 51.94949 17.54821 35426 ft 505 kts 137°
2026-04-30 13:41 51.89106 17.61043 35424 ft 505 kts 137°
2026-04-30 13:42 51.83227 17.67285 35425 ft 505 kts 137°
2026-04-30 13:42 51.74397 17.76621 35428 ft 505 kts 137°
2026-04-30 13:43 51.68557 17.82772 35429 ft 505 kts 137°
2026-04-30 13:43 51.62669 17.88953 35428 ft 504 kts 137°
2026-04-30 13:44 51.56778 17.95120 35434 ft 504 kts 138°
2026-04-30 13:44 51.50885 18.01269 35426 ft 504 kts 138°
2026-04-30 13:45 51.42079 18.10421 35425 ft 505 kts 138°
2026-04-30 13:46 51.36176 18.16533 35422 ft 505 kts 139°
2026-04-30 13:46 51.30260 18.22639 35424 ft 505 kts 139°
2026-04-30 13:47 51.24349 18.28721 35420 ft 505 kts 139°
2026-04-30 13:47 51.18433 18.34787 35418 ft 506 kts 139°
2026-04-30 13:48 51.12508 18.40845 35424 ft 506 kts 140°
2026-04-30 13:48 51.06615 18.46852 35416 ft 506 kts 140°
2026-04-30 13:49 51.00681 18.52883 35407 ft 506 kts 140°
2026-04-30 13:49 50.94730 18.58911 35400 ft 507 kts 140°
2026-04-30 13:50 50.88783 18.64916 35407 ft 507 kts 140°
2026-04-30 13:50 50.79842 18.73910 35411 ft 508 kts 141°
2026-04-30 13:51 50.73877 18.79889 35407 ft 508 kts 141°
2026-04-30 13:51 50.67896 18.85868 35405 ft 508 kts 141°
2026-04-30 13:52 50.61909 18.91834 35404 ft 509 kts 141°
2026-04-30 13:52 50.55956 18.97747 35404 ft 509 kts 141°
2026-04-30 13:53 50.49959 19.03682 35400 ft 509 kts 141°
2026-04-30 13:53 50.43960 19.09604 35398 ft 510 kts 142°
2026-04-30 13:54 50.37951 19.15515 35404 ft 510 kts 142°
2026-04-30 13:54 50.31935 19.21417 35400 ft 510 kts 142°
2026-04-30 13:55 50.25918 19.27302 35397 ft 510 kts 142°
2026-04-30 13:55 50.19895 19.33174 35391 ft 510 kts 142°
2026-04-30 13:56 50.13907 19.38996 35386 ft 510 kts 143°
2026-04-30 13:56 50.07884 19.44835 35381 ft 510 kts 143°
2026-04-30 13:57 50.01853 19.50664 35379 ft 510 kts 143°
2026-04-30 13:57 49.95819 19.56478 35380 ft 510 kts 143°
2026-04-30 13:58 49.86770 19.65164 35377 ft 510 kts 143°
2026-04-30 13:59 49.80727 19.70943 35380 ft 510 kts 144°
2026-04-30 13:59 49.74688 19.76702 35376 ft 510 kts 144°
2026-04-30 14:00 49.68686 19.82408 35376 ft 510 kts 144°
2026-04-30 14:00 49.59623 19.90994 35372 ft 510 kts 144°
2026-04-30 14:01 49.53571 19.96706 35364 ft 509 kts 144°
2026-04-30 14:01 49.47522 20.02397 35363 ft 509 kts 145°
2026-04-30 14:02 49.42493 20.07116 35359 ft 510 kts 145°
2026-04-30 14:02 49.36431 20.12790 35345 ft 510 kts 145°
2026-04-30 14:03 49.30370 20.18443 35334 ft 510 kts 146°
2026-04-30 14:03 49.23007 20.24242 35311 ft 513 kts 152°
2026-04-30 14:04 49.17628 20.28085 35328 ft 513 kts 152°
2026-04-30 14:04 49.11192 20.32769 35321 ft 512 kts 151°
2026-04-30 14:05 49.04768 20.37553 35318 ft 512 kts 151°
2026-04-30 14:05 48.98369 20.42347 35322 ft 512 kts 151°
2026-04-30 14:06 48.88807 20.49488 35324 ft 512 kts 151°
2026-04-30 14:07 48.79202 20.56620 35329 ft 512 kts 152°
2026-04-30 14:08 48.69586 20.63727 35330 ft 512 kts 152°
2026-04-30 14:08 48.60022 20.70767 35335 ft 511 kts 152°
2026-04-30 14:09 48.53611 20.75469 35338 ft 512 kts 152°
2026-04-30 14:10 48.44028 20.82474 35343 ft 512 kts 152°
2026-04-30 14:10 48.37604 20.87152 35340 ft 511 kts 152°
2026-04-30 14:11 48.31195 20.91808 35342 ft 512 kts 152°
2026-04-30 14:11 48.24780 20.96454 35342 ft 512 kts 152°
2026-04-30 14:12 48.18363 21.01088 35339 ft 512 kts 153°
2026-04-30 14:12 48.11934 21.05718 35340 ft 512 kts 153°
2026-04-30 14:13 48.05539 21.10310 35331 ft 512 kts 153°
2026-04-30 14:13 47.99105 21.14918 35333 ft 512 kts 153°
2026-04-30 14:14 47.92662 21.19518 35330 ft 512 kts 153°
2026-04-30 14:14 47.86262 21.24077 35327 ft 512 kts 153°
2026-04-30 14:15 47.79829 21.28647 35320 ft 512 kts 153°
2026-04-30 14:15 47.73384 21.33215 35314 ft 512 kts 153°
2026-04-30 14:16 47.66944 21.37762 35304 ft 512 kts 153°
2026-04-30 14:16 47.60490 21.42307 35298 ft 513 kts 153°
2026-04-30 14:17 47.54041 21.46838 35295 ft 513 kts 153°
2026-04-30 14:17 47.47634 21.51326 35291 ft 513 kts 153°
2026-04-30 14:18 47.41170 21.55842 35291 ft 513 kts 154°
2026-04-30 14:18 47.31483 21.62586 35294 ft 513 kts 154°
2026-04-30 14:19 47.22901 21.68673 35287 ft 513 kts 149°
2026-04-30 14:20 47.17345 21.75097 35286 ft 508 kts 130°
2026-04-30 14:20 47.11960 21.88332 35296 ft 504 kts 113°
2026-04-30 14:21 47.09007 21.97664 35293 ft 504 kts 112°
2026-04-30 14:22 47.04550 22.11652 35292 ft 505 kts 113°
2026-04-30 14:22 47.00002 22.25590 35277 ft 505 kts 113°
2026-04-30 14:23 46.93909 22.44102 35258 ft 506 kts 114°
2026-04-30 14:24 46.89302 22.58022 35268 ft 506 kts 114°
2026-04-30 14:25 46.83152 22.76495 35254 ft 507 kts 114°
2026-04-30 14:26 46.78495 22.90390 35258 ft 507 kts 114°
2026-04-30 14:27 46.73638 23.04126 35260 ft 510 kts 122°
2026-04-30 14:27 46.69689 23.12727 35255 ft 511 kts 123°
2026-04-30 14:28 46.63603 23.25405 35255 ft 511 kts 123°
2026-04-30 14:28 46.59519 23.33877 35257 ft 512 kts 123°
2026-04-30 14:29 46.52033 23.49401 35259 ft 512 kts 124°
2026-04-30 14:31 46.41108 23.71921 35256 ft 512 kts 124°
2026-04-30 14:31 46.34924 23.84586 35260 ft 513 kts 124°